Location: Pian di Sc�
(43.6333°N, 11.5500°E)
Time: 14:28:36
(UTC+00:00)

Cosmos 1892 Rocket - Pass Details

Date: 07 August 2020
Orbit: 605 x 634 km, 82.5° (Epoch: 24 September)

Event Time Altitude Azimuth Distance (km) Brightness Sun altitude
Rises 01:38:00 0° 352° (N) 2,937 7.7 -22.2°
Reaches altitude 10° 01:40:16 10° 354° (N) 2,022 6.8 -22.0°
Maximum altitude 01:44:46 81° 82° (E) 642 3.6 -21.5°
Enters shadow 01:46:10 43° 163° (SSE) 880 4.0 -21.3°
